Volver al catálogo

DELTA 4 R/B

ActivoHEO
NORAD 28546·ROCKET BODY·🇺🇸 United States

Lanzado Dec 21, 2004 desde Cape Canaveral Space Force Station

Loading…

Próximos Pases (próximas 24 horas)

TLE

ActualizadoSource: Space-Track

Época: Sep 14, 2026, 21:28 UTC

1 28546U 04050B   26257.89470062 -.00000142  00000-0  00000-0 0  9990
2 28546  15.6543 315.3969 2589367 349.3739 187.8828  1.37842656109335

Sigue DELTA 4 R/B en tiempo real con AllMySat

Download on the App Store